Weather History for Bentonville, AR

Change the Weather History Date:

Friday, December 14, 2012

  Actual Average Record
Temperature  
Mean Temperature 45 °F -  
Max Temperature 55 °F 48 °F 76 °F (1948)
Min Temperature 35 °F 26 °F -5 °F (1985)
Degree Days  
Heating Degree Days 20    
Moisture  
Dew Point 27 °F    
Average Humidity 51    
Maximum Humidity 81    
Minimum Humidity 26    
Precipitation  
Precipitation 0.11 in - - ()
Sea Level Pressure  
Sea Level Pressure 30.04 in    
Wind  
Wind Speed 7 mph (SSE)    
Max Wind Speed 18 mph    
Max Gust Speed 25 mph    
Visibility 10 miles    
Events      
Averages and records for this station are not official NWS values.
T = Trace of Precipitation, MM = Missing Value Source: NWS Daily Summary

Daily Weather History Graph

Daily Weather History Graph

Search for Another Location

Airport:

Trip Planner

Search our weather history database for the weather conditions in past years. The results will help you decide how hot, cold, wet, or windy it might be!

Date:

Astronomy

Dec. 14, 2012 Rise Set
Actual Time 7:20 AM CST 5:02 PM CST
Civil Twilight 6:52 AM CST 5:31 PM CST
Nautical Twilight 6:19 AM CST 6:03 PM CST
Astronomical Twilight 5:48 AM CST 6:35 PM CST
Moon 8:27 AM CST (12/14) 6:54 PM CST (12/14)
Length of Visible Light 10h 39m
Length of Day
9h 42m
Waxing Crescent, 3% of the Moon is Illuminated
Dec 14
Waxing Crescent
Dec 19
First Quarter
Dec 28
Full
Jan 4
Last Quarter
Jan 11
New

Hourly Weather History & Observations

Time (CST) Temp. Windchill Dew Point Humidity Pressure Visibility Wind Dir Wind Speed Gust Speed Precip Events Conditions
12:15 AM 44.6 °F 40.7 °F 21.2 °F 39% 30.16 in 10.0 mi SSW 6.9 mph - N/A   Clear
12:35 AM 42.8 °F 38.6 °F 21.2 °F 42% 30.15 in 10.0 mi South 6.9 mph - N/A   Clear
12:55 AM 44.6 °F 40.7 °F 21.2 °F 39% 30.16 in 10.0 mi South 6.9 mph - N/A   Clear
1:16 AM 42.8 °F 38.6 °F 21.2 °F 42% 30.14 in 10.0 mi South 6.9 mph - N/A   Clear
1:35 AM 42.8 °F 38.6 °F 19.4 °F 39% 30.14 in 10.0 mi South 6.9 mph - N/A   Clear
1:55 AM 42.8 °F 40.1 °F 19.4 °F 39% 30.14 in 10.0 mi South 4.6 mph - N/A   Clear
2:35 AM 41.0 °F 37.1 °F 19.4 °F 42% 30.16 in 10.0 mi South 5.8 mph - N/A   Clear
2:55 AM 37.4 °F 32.1 °F 19.4 °F 48% 30.15 in 10.0 mi SSE 6.9 mph - N/A   Clear
3:15 AM 37.4 °F 32.8 °F 19.4 °F 48% 30.14 in 10.0 mi SSE 5.8 mph - N/A   Clear
3:36 AM 37.4 °F 34.9 °F 19.4 °F 48% 30.14 in 10.0 mi SSE 3.5 mph - N/A   Clear
3:55 AM 35.6 °F - 23.0 °F 60% 30.14 in 10.0 mi Calm Calm - N/A   Clear
4:15 AM 37.4 °F 33.8 °F 19.4 °F 48% 30.14 in 10.0 mi SSE 4.6 mph - N/A   Clear
5:15 AM 35.6 °F - 19.4 °F 52% 30.13 in 10.0 mi Calm Calm - N/A   Clear
5:35 AM 35.6 °F - 19.4 °F 52% 30.13 in 10.0 mi Calm Calm - N/A   Clear
6:15 AM 37.4 °F 33.8 °F 19.4 °F 48% 30.14 in 10.0 mi SE 4.6 mph - N/A   Clear
6:35 AM 37.4 °F 33.8 °F 19.4 °F 48% 30.14 in 10.0 mi SSE 4.6 mph - N/A   Clear
6:55 AM 35.6 °F 30.7 °F 21.2 °F 56% 30.14 in 10.0 mi SSE 5.8 mph - N/A   Clear
7:15 AM 37.4 °F 33.8 °F 21.2 °F 52% 30.15 in 10.0 mi SSE 4.6 mph - N/A   Clear
7:35 AM 37.4 °F 33.8 °F 21.2 °F 52% 30.14 in 10.0 mi SSE 4.6 mph - N/A   Clear
7:55 AM 37.4 °F 32.8 °F 21.2 °F 52% 30.14 in 10.0 mi SSE 5.8 mph - N/A   Clear
8:35 AM 42.8 °F 38.6 °F 26.6 °F 53% 30.13 in 10.0 mi SSE 6.9 mph - N/A   Clear
8:55 AM 44.6 °F 41.4 °F 24.8 °F 46% 30.14 in 10.0 mi SSE 5.8 mph - N/A   Clear
9:15 AM 44.6 °F 41.4 °F 26.6 °F 49% 30.12 in 10.0 mi SE 5.8 mph - N/A   Clear
9:36 AM 46.4 °F 43.5 °F 26.6 °F 46% 30.13 in 10.0 mi SSE 5.8 mph - N/A   Clear
9:55 AM 48.2 °F - 24.8 °F 40% 30.13 in 10.0 mi South 8.1 mph - N/A   Clear
10:15 AM 50.0 °F - 24.8 °F 37% 30.14 in 10.0 mi South 6.9 mph - N/A   Clear
10:55 AM 51.8 °F - 26.6 °F 38% 30.13 in 10.0 mi South 10.4 mph - N/A   Overcast
11:15 AM 53.6 °F - 24.8 °F 33% 30.12 in 10.0 mi South 9.2 mph - N/A   Mostly Cloudy
11:35 AM 53.6 °F - 24.8 °F 33% 30.12 in 10.0 mi SSW 9.2 mph - N/A   Scattered Clouds
11:56 AM 53.6 °F - 24.8 °F 33% 30.11 in 10.0 mi SSW 10.4 mph - N/A   Overcast
12:15 PM 53.6 °F - 24.8 °F 33% 30.10 in 10.0 mi SSW 8.1 mph - N/A   Overcast
12:55 PM 53.6 °F - 23.0 °F 30% 30.06 in 10.0 mi South 8.1 mph - N/A   Overcast
1:15 PM 55.4 °F - 21.2 °F 26% 30.05 in 10.0 mi South 8.1 mph - N/A   Overcast
1:35 PM 55.4 °F - 21.2 °F 26% 30.04 in 10.0 mi South 6.9 mph - N/A   Overcast
1:55 PM 55.4 °F - 23.0 °F 29% 30.02 in 10.0 mi South 6.9 mph - N/A   Overcast
2:15 PM 55.4 °F - 24.8 °F 31% 30.01 in 10.0 mi South 5.8 mph - N/A   Overcast
2:35 PM 55.4 °F - 24.8 °F 31% 30.00 in 10.0 mi SSE 9.2 mph - N/A   Overcast
2:55 PM 55.4 °F - 24.8 °F 31% 29.98 in 10.0 mi SSE 8.1 mph - N/A   Overcast
3:16 PM 53.6 °F - 28.4 °F 38% 29.98 in 10.0 mi SE 6.9 mph - N/A   Overcast
3:35 PM 53.6 °F - 26.6 °F 35% 29.97 in 10.0 mi SE 9.2 mph - N/A   Overcast
3:55 PM 51.8 °F - 28.4 °F 41% 29.96 in 10.0 mi SE 9.2 mph - N/A   Overcast
4:15 PM 48.2 °F - 33.8 °F 58% 29.96 in 9.0 mi SSE 4.6 mph - 0.01 in   Mostly Cloudy
4:35 PM 48.2 °F - 33.8 °F 58% 29.96 in 10.0 mi SE 9.2 mph 16.1 mph 0.01 in   Overcast
4:55 PM 46.4 °F - 35.6 °F 66% 29.95 in 10.0 mi Calm Calm - 0.01 in   Overcast
5:15 PM 46.4 °F 45.2 °F 35.6 °F 66% 29.97 in 10.0 mi SW 3.5 mph - 0.01 in   Overcast
5:55 PM 44.6 °F 39.2 °F 37.4 °F 76% 29.92 in 10.0 mi SE 10.4 mph - 0.05 in   Overcast
6:15 PM 44.6 °F 38.8 °F 35.6 °F 71% 29.91 in 10.0 mi SE 11.5 mph - N/A   Mostly Cloudy
6:55 PM 46.4 °F 40.7 °F 33.8 °F 62% 29.92 in 10.0 mi South 12.7 mph 16.1 mph N/A   Overcast
7:15 PM 46.4 °F 40.7 °F 33.8 °F 62% 29.93 in 10.0 mi South 12.7 mph 19.6 mph 0.01 in   Overcast
7:35 PM 46.4 °F 39.5 °F 33.8 °F 62% 29.93 in 10.0 mi South 17.3 mph 23.0 mph 0.01 in   Overcast
7:56 PM 44.6 °F 40.2 °F 35.6 °F 71% 29.94 in 10.0 mi South 8.1 mph - N/A   Overcast
8:15 PM 44.6 °F 39.7 °F 35.6 °F 71% 29.91 in 10.0 mi SSE 9.2 mph - N/A   Overcast
8:35 PM 44.6 °F 38.1 °F 35.6 °F 71% 29.90 in 10.0 mi SSE 13.8 mph 25.3 mph N/A   Overcast
8:55 PM 44.6 °F 37.8 °F 37.4 °F 76% 29.88 in 10.0 mi SE 15.0 mph 18.4 mph N/A   Overcast
9:15 PM 42.8 °F 35.8 °F 37.4 °F 81% 29.87 in 10.0 mi SE 13.8 mph - N/A   Overcast
9:35 PM 42.8 °F 36.6 °F 37.4 °F 81% 29.86 in 10.0 mi SE 11.5 mph - N/A   Overcast
9:55 PM 44.6 °F 38.1 °F 37.4 °F 76% 29.84 in 9.0 mi SE 13.8 mph 21.9 mph 0.03 in   Overcast
10:15 PM 44.6 °F 38.8 °F 37.4 °F 76% 29.84 in 10.0 mi SE 11.5 mph - N/A   Overcast
10:35 PM 46.4 °F 40.7 °F 39.2 °F 76% 29.82 in 10.0 mi SE 12.7 mph - N/A   Overcast
11:35 PM 50.0 °F - 42.8 °F 76% 29.80 in 10.0 mi SSE 9.2 mph - 0.01 in   Overcast
11:55 PM 51.8 °F - 44.6 °F 76% 29.79 in 10.0 mi South 18.4 mph 25.3 mph 0.01 in   Overcast